Skip Page Navigation
NASA JPL Caltech
NASA Logo - Jet Propulsion Laboratory + View the NASA Portal
+ Near-Earth Object (NEO) Program
Search JPL
JPL Home Earth Solar System Stars & Galaxies Technology
JPL Solar System Dynamics
BODIES ORBITS EPHEMERIDES TOOLS PHYSICAL DATA DISCOVERY FAQ SITE MAP
JPL Small-Body Database Browser
Search: [ help ]  
(2006 RH120)
Classification: Aten [NEO]          SPK-ID: 3403148
Ephemeris | Orbit Diagram | Orbital Elements | Physical Parameters | Close-Approach Data ]

[ hide orbit diagram ]
Orbit Diagram
Note: Make sure you have Java enabled on your browser to see the applet. This applet is provided as a 3D orbit visualization tool. The applet was implemented using 2-body methods, and hence should not be used for determining accurate long-term trajectories (over several years or decades) or planetary encounter circumstances. For accurate long-term ephemerides, please instead use our Horizons system.
Orbit Viewer

Additional Notes: the orbits shown in the applet are color coded. The planets are white lines, and the asteroid/comet is a blue line. The bright white line indicates the portion of the orbit that is above the ecliptic plane, and the darker portion is below the ecliptic plane. Likewise for the asteroid/comet orbit, the light blue indicates the portion above the ecliptic plane, and the dark blue the portion below the ecliptic plane.

Orbit Viewer applet originally written and kindly provided by Osamu Ajiki (AstroArts), and further modified by Ron Baalke (JPL).


Orbital Elements at Epoch 2454114.5 (2007-Jan-14.0) TDB
Reference: JPL 45 (heliocentric ecliptic J2000)
 Element Value Uncertainty (1-sigma)   Units 
e .02057722319317308 3.6838e-08  
a .999473130093488 3.717e-08 AU
q .9789067484199749 5.5173e-09 AU
i 1.561008275502977 6.5243e-07 deg
node 290.5979929214975 7.5545e-05 deg
peri 183.4004196731137 0.00025101 deg
M 359.4091672368594 0.00031323 deg
tp 2454115.098986701761
(2007-Jan-14.59898670)
0.00031757 JED
period 364.9682720499899
1.00
2.0359e-05
5.574e-08
d
yr
n .9863871124410797 5.5025e-08 deg/d
Q 1.020039511767001 3.7935e-08 AU

Additional Model Parameters
 Parameter Value Uncertainty (1-sigma) 
A1 [EST] -5.595703113474793E-11 6.374E-12
A2 [EST] -5.390516639042657E-11 4.808E-12
ALN [SET] 1 n/a
AMRAT [SET] .0008 n/a
NK [SET] 0 n/a
NM [SET] 2 n/a
R0 [SET] 1 n/a
  Orbit Determination Parameters
   # obs. used (total)      133  
   # delay obs. used      0  
   # Doppler obs. used      3  
   data-arc span      281 days  
   first obs. used      2006-09-14  
   last obs. used      2007-06-22  
   planetary ephem.      DE405  
   SB-pert. ephem.      SB405-CPV-2  
   condition code      1  
   fit RMS      .77546  
   data source      ORB  
   producer      P.W. Chodas  
   solution date      2008-Jan-23 15:45:14  

Additional Information
 Earth MOID = .00255146 AU 
 T_jup = 6.082 
 Nongravitational accels. using nonstandard g(r) = (1 AU/ r)^2 
[ show covariance matrix ]

Ephemeris | Orbit Diagram | Orbital Elements | Physical Parameters | Close-Approach Data ]

Physical Parameter Table
Parameter Symbol Value Units Sigma Reference Notes
absolute magnitude H 29.527 mag 1.2523 45 autocmod 2.2g
rotation period rot_per 0.04583 h n/a Asteroid Lightcurve DataBase (Rev. 2013-May-01) Result based on less than full coverage, so that the period may be wrong by 30 percent or so.
Published Reference List:
[Kwiatkowski, T.; Kryszczynska, A.; Polinska, M.; Buckley, D.A.H.; et al. (2009) Astron. Astrophys. 495, 967-974.]

[ show close-approach data ]
Ephemeris | Orbit Diagram | Orbital Elements | Physical Parameters | Close-Approach Data ]
ABOUT SSD CREDITS/AWARDS PRIVACY/COPYRIGHT GLOSSARY LINKS
FirstGov 2013-May-21 12:33 UT
(server date/time)  
NASA Home Page
Site Manager:   Donald K. Yeomans
Webmaster  Alan B. Chamberlin